Charleston, WV

3:20 PM EST on December 12, 2017 (GMT -0500)
Yeager Airport

Weather History for KCRW - June, 2013

Change the Weather History Date:

Sunday, June 30, 2013

  Actual Average Record
Temperature  
Mean Temperature 75 °F 75 °F  
Max Temperature 86 °F 85 °F 99 °F (1936)
Min Temperature 64 °F 65 °F 40 °F (1924)
Degree Days  
Heating Degree Days 0 0  
Month to date heating degree days 0 10  
Since 1 June heating degree days 0 13  
Since 1 July heating degree days 4516 4478  
Cooling Degree Days 10 10  
Month to date cooling degree days 235 220  
Year to date cooling degree days 382 330  
Since 1 June cooling degree days 235 220  
Growing Degree Days 25 (Base 50)    
Moisture  
Dew Point 64 °F    
Average Humidity 71    
Maximum Humidity 93    
Minimum Humidity 48    
Precipitation  
Precipitation 0.00 in 0.13 in 2.12 in (1900)
Month to date precipitation 7.12 4.29  
Year to date precipitation 22.55 22.43  
Snow  
Snow 0.00 in - - ()
Month to date snowfall 0.0  
Since 1 September snowfall 25.3  
Snow Depth 0.00 in    
Sea Level Pressure  
Sea Level Pressure 29.73 in    
Wind  
Wind Speed 3 mph (NNW)    
Max Wind Speed 14 mph    
Max Gust Speed 20 mph    
Visibility 6 miles    
Events Fog    
T = Trace of Precipitation, MM = Missing Value Source: NWS Daily Summary

Daily Weather History Graph

Daily Weather History Graph

Search for Another Location

Airport or City:

Trip Planner

Search our weather history database for the weather conditions in past years. The results will help you decide how hot, cold, wet, or windy it might be!

Date:

Astronomy

Jun. 30, 2013 Rise Set
Actual Time 6:05 AM EDT 8:54 PM EDT
Civil Twilight 5:34 AM EDT 9:25 PM EDT
Nautical Twilight 4:54 AM EDT 10:05 PM EDT
Astronomical Twilight 4:09 AM EDT 10:50 PM EDT
Moon 1:00 AM EDT (6/30) 2:10 PM EDT (6/30)
Length of Visible Light 15h 51m
Length of Day
14h 48m
Last Quarter, 45% of the Moon is Illuminated
Jun 30
Last Quarter
Jul 8
New
Jul 15
First Quarter
Jul 22
Full
Jul 29
Last Quarter

Hourly Weather History & Observations

Time (EDT) Temp. Heat Index Dew Point Humidity Pressure Visibility Wind Dir Wind Speed Gust Speed Precip Events Conditions
12:42 AM 66.2 °F - 64.4 °F 94% 29.70 in 0.2 mi Calm Calm - N/A Fog Fog
12:54 AM 66.0 °F - 64.0 °F 93% 29.68 in 0.2 mi Calm Calm - N/A Fog Fog
1:18 AM 64.4 °F - 62.6 °F 94% 29.70 in 0.2 mi Calm Calm - N/A Fog Fog
1:54 AM 64.9 °F - 63.0 °F 93% 29.70 in 0.2 mi West 4.6 mph - N/A Fog Fog
2:54 AM 64.0 °F - 63.0 °F 96% 29.68 in 0.2 mi Calm Calm - N/A Fog Fog
3:54 AM 64.0 °F - 62.1 °F 93% 29.68 in 0.2 mi Calm Calm - N/A Fog Fog
4:54 AM 64.0 °F - 63.0 °F 96% 29.69 in 0.2 mi Calm Calm - N/A Fog Fog
5:54 AM 64.0 °F - 63.0 °F 96% 29.70 in 0.2 mi Calm Calm - N/A Fog Fog
6:54 AM 64.0 °F - 62.1 °F 93% 29.72 in 0.2 mi SE 3.5 mph - N/A Fog Fog
7:54 AM 64.9 °F - 63.0 °F 93% 29.73 in 0.2 mi Calm Calm - N/A Fog Fog
8:30 AM 66.2 °F - 64.4 °F 94% 29.76 in 0.8 mi Calm Calm - N/A   Scattered Clouds
8:54 AM 66.0 °F - 64.0 °F 93% 29.74 in 4.0 mi Calm Calm - N/A   Scattered Clouds
9:54 AM 75.0 °F - 66.0 °F 73% 29.75 in 10.0 mi Variable 3.5 mph - N/A   Scattered Clouds
10:54 AM 78.1 °F - 64.9 °F 64% 29.75 in 10.0 mi Calm Calm - N/A   Partly Cloudy
11:54 AM 81.0 °F 82.5 °F 64.0 °F 56% 29.74 in 10.0 mi West 3.5 mph - N/A   Partly Cloudy
12:54 PM 82.9 °F 84.0 °F 63.0 °F 51% 29.74 in 10.0 mi SSW 6.9 mph - N/A   Scattered Clouds
1:54 PM 84.0 °F 84.9 °F 63.0 °F 49% 29.73 in 10.0 mi Variable 5.8 mph - N/A   Scattered Clouds
2:54 PM 84.0 °F 85.8 °F 64.9 °F 53% 29.72 in 10.0 mi NNE 5.8 mph - N/A   Scattered Clouds
3:54 PM 82.9 °F 84.6 °F 64.9 °F 54% 29.71 in 10.0 mi North 3.5 mph - N/A   Mostly Cloudy
4:54 PM 79.0 °F - 64.9 °F 62% 29.73 in 10.0 mi NW 11.5 mph 16.1 mph N/A   Mostly Cloudy
5:54 PM 80.1 °F 81.9 °F 64.9 °F 60% 29.74 in 10.0 mi NNW 5.8 mph - N/A   Mostly Cloudy
6:54 PM 81.0 °F 82.5 °F 64.0 °F 56% 29.75 in 10.0 mi North 3.5 mph - N/A   Mostly Cloudy
7:54 PM 79.0 °F - 64.9 °F 62% 29.76 in 10.0 mi Calm Calm - N/A   Mostly Cloudy
8:54 PM 75.0 °F - 66.9 °F 76% 29.77 in 10.0 mi Calm Calm - N/A   Mostly Cloudy
9:54 PM 73.0 °F - 68.0 °F 84% 29.79 in 10.0 mi SE 3.5 mph - N/A   Scattered Clouds
10:54 PM 73.0 °F - 66.9 °F 81% 29.79 in 10.0 mi Calm Calm - N/A   Scattered Clouds
11:54 PM 70.0 °F - 66.9 °F 90% 29.78 in 7.0 mi Calm Calm - N/A   Scattered Clouds